TimeEDT,TemperatureF,Dew PointF,Humidity,Sea Level PressureIn,VisibilityMPH,Wind Direction,Wind SpeedMPH,Gust SpeedMPH,PrecipitationIn,Events,Conditions,WindDirDegrees,DateUTC
12:53 AM,25.0,12.0,58,30.36,10.0,Calm,Calm,-,N/A,,Clear,0,2013-04-04 04:53:00
1:53 AM,24.1,12.9,62,30.35,10.0,Calm,Calm,-,N/A,,Clear,0,2013-04-04 05:53:00
2:53 AM,19.9,14.0,78,30.36,10.0,Calm,Calm,-,N/A,,Clear,0,2013-04-04 06:53:00
3:53 AM,21.0,14.0,74,30.35,10.0,Calm,Calm,-,N/A,,Clear,0,2013-04-04 07:53:00
4:53 AM,19.0,14.0,81,30.36,10.0,Calm,Calm,-,N/A,,Clear,0,2013-04-04 08:53:00
5:53 AM,18.0,12.9,81,30.38,10.0,SSW,3.5,-,N/A,,Clear,200,2013-04-04 09:53:00
6:53 AM,17.1,12.0,81,30.38,10.0,Calm,Calm,-,N/A,,Clear,0,2013-04-04 10:53:00
7:53 AM,23.0,17.1,78,30.38,10.0,West,3.5,-,N/A,,Clear,260,2013-04-04 11:53:00
8:53 AM,27.0,17.1,66,30.37,10.0,SSW,4.6,-,N/A,,Clear,200,2013-04-04 12:53:00
9:53 AM,33.1,16.0,50,30.32,10.0,West,3.5,-,N/A,,Clear,270,2013-04-04 13:53:00
10:53 AM,37.0,17.1,44,30.31,10.0,Calm,Calm,-,N/A,,Clear,0,2013-04-04 14:53:00
11:53 AM,42.1,16.0,35,30.26,10.0,Variable,3.5,-,N/A,,Clear,0,2013-04-04 15:53:00
12:53 PM,46.9,17.1,30,30.22,10.0,Variable,4.6,-,N/A,,Clear,0,2013-04-04 16:53:00
1:53 PM,51.1,15.1,24,30.17,10.0,SSW,8.1,16.1,N/A,,Clear,200,2013-04-04 17:53:00
2:53 PM,52.0,15.1,23,30.12,10.0,SSW,9.2,20.7,N/A,,Clear,210,2013-04-04 18:53:00
3:53 PM,53.1,15.1,22,30.08,10.0,SSW,12.7,-,N/A,,Clear,210,2013-04-04 19:53:00
4:53 PM,54.0,15.1,22,30.05,10.0,SSW,13.8,-,N/A,,Clear,210,2013-04-04 20:53:00
5:53 PM,53.1,16.0,23,30.04,10.0,SSW,8.1,-,N/A,,Clear,200,2013-04-04 21:53:00
6:53 PM,51.1,16.0,25,30.04,10.0,SSW,12.7,-,N/A,,Clear,200,2013-04-04 22:53:00
7:53 PM,46.9,16.0,29,30.03,10.0,South,9.2,-,N/A,,Clear,180,2013-04-04 23:53:00
8:53 PM,44.1,15.1,31,30.02,10.0,South,8.1,-,N/A,,Clear,190,2013-04-05 00:53:00
9:53 PM,41.0,15.1,35,30.01,10.0,South,5.8,-,N/A,,Clear,190,2013-04-05 01:53:00
10:53 PM,39.0,16.0,39,29.99,10.0,WSW,4.6,-,N/A,,Clear,240,2013-04-05 02:53:00
11:53 PM,32.0,18.0,56,29.98,10.0,Calm,Calm,-,N/A,,Clear,0,2013-04-05 03:53:00